Content
SEND FEEDBACK

Daily
Averages
Monthly
Summary
Canada

ANCIENNE LORETTE, QUEBEC


Home > North America > Canada > Quebec
Elevation: 230 feet     Latitude: 46 48N     Longitude: 071 22W

WEATHER
 
SELECT A DAY
Number of Records: 192,115;   Date Range: 6/30/96 - 7/30/14
 
SHARE

PRINT THIS DATA

[ ← Previous Day ]
WEATHER ALMANAC - MAY 9, 2013
[ Next Day → ]
[ °C ]   °F
Weather ElementAverageHighLow
Temperature62.5 °F70 °F (5:00 pm)54 °F (5:00 am)
Dewpoint41.4 °F61 °F (2:00 pm) (7:00 pm)
Humidity76 %92 % (11:00 pm)63 % (1:00 am)
Wind Speed3.6 mph9.2 mph (9:29 pm)
Weather ElementAverage
Visibility14.4 mi
Wind DirectionESE (101.5 °)

Weather ElementTotal
Precipitation---
Heating Degree Days3 (Base 65)
Growing Degree Days12 (Base 50)
Averaged from 40 records on May 9, 2013
WEATHER CONDITIONS BREAKOUT
WIND DIRECTION BREAKOUT
WEATHER BY HOUR - MAY 9, 2013
[ °C ]   °F
Local TimeTemperatureDewpointHumidityBarometerVisibilityWind DirectionWind SpeedGust SpeedPrecipitationEventsConditions
1:00 AM59.0 °F46.4 °F63 %30.04 in15.0 miNNE (30°)4.6 mphMostly Cloudy
2:00 AM56.0 °F48.0 °F67 %30.01 inENE (70°)1.2 mph
2:00 AM57.2 °F46.4 °F67 %30.03 in15.0 miNNE (30°)3.5 mphOvercast
3:00 AM55.4 °F46.4 °F72 %30.02 in15.0 miENE (70°)2.3 mphMostly Cloudy
4:00 AM57.2 °F48.2 °F72 %30.01 in15.0 miNE (50°)4.6 mphOvercast
5:00 AM57.2 °F48.2 °F72 %30.00 in20.0 miCalmOvercast
5:00 AM54.0 °F50.0 °F81 %29.99 inNW (310°)1.2 mph
6:00 AM59.0 °F50.0 °F72 %29.99 in15.0 miNNE (20°)3.5 mphRainLight Rain Showers
7:00 AM59.0 °F51.8 °F77 %30.00 in15.0 miENE (70°)2.3 mphOvercast
7:02 AM59.0 °F0.0 °F12.0 miCalmRainLight Rain Showers
7:34 AM60.8 °F0.0 °F12.0 miNorth (10°)3.5 mphOvercast
8:00 AM61.0 °F55.0 °F73 %29.98 inNE (50°)2.3 mph
8:00 AM60.8 °F53.6 °F77 %30.00 in12.0 miNNE (20°)4.6 mphOvercast
9:00 AM62.6 °F55.4 °F77 %29.99 in20.0 miEast (100°)3.5 mphOvercast
9:11 AM62.6 °F0.0 °F12.0 miNE (40°)3.5 mphRainLight Rain Showers
9:42 AM64.4 °F0.0 °F12.0 miENE (70°)4.6 mphOvercast
10:00 AM64.4 °F57.2 °F77 %29.97 in12.0 miEast (90°)4.6 mphOvercast
11:00 AM67.0 °F59.0 °F68 %29.93 inEast (100°)3.5 mph
11:00 AM66.2 °F57.2 °F73 %29.95 in15.0 miEast (100°)6.9 mphMostly Cloudy
12:00 PM68.0 °F57.2 °F68 %29.93 in15.0 miEast (80°)5.8 mphOvercast
12:15 PM68.0 °F0.0 °F12.0 miESE (110°)3.5 mphRainLight Rain Showers
12:50 PM64.4 °F0.0 °F4.0 miWest (280°)3.5 mphRainRain Showers
1:00 PM64.4 °F59.0 °F83 %29.91 in6.0 miNW (310°)3.5 mphRainLight Rain Showers
2:00 PM64.0 °F61.0 °F87 %29.89 inSSE (160°)4.6 mph
2:00 PM62.6 °F59.0 °F88 %29.90 in6.0 miWSW (250°)5.8 mphRainLight Rain Showers
2:52 PM66.2 °F0.0 °F10.0 miWSW (250°)4.6 mphMostly Cloudy
3:00 PM66.2 °F60.8 °F83 %29.89 in25.0 miNW (310°)3.5 mphMostly Cloudy
4:00 PM68.0 °F59.0 °F73 %29.86 in25.0 miNNE (30°)2.3 mphMostly Cloudy
5:00 PM70.0 °F61.0 °F66 %29.81 inEast (80°)4.6 mph
5:00 PM69.8 °F59.0 °F68 %29.83 in25.0 miNE (50°)3.5 mphScattered Clouds
6:00 PM69.8 °F60.8 °F73 %29.83 in25.0 miEast (90°)4.6 mphMostly Cloudy
7:00 PM68.0 °F59.0 °F73 %29.83 in25.0 miCalmMostly Cloudy
8:00 PM68.0 °F59.0 °F73 %29.84 in20.0 miENE (60°)3.5 mphOvercast
9:00 PM60.8 °F57.2 °F88 %29.87 in6.0 miSouth (180°)8.1 mphRain-ThunderstormHeavy Thunderstorms and Rain
9:14 PM60.8 °F0.0 °F10.0 miNE (50°)5.8 mphThunderstormThunderstorm
9:29 PM60.8 °F0.0 °F12.0 miESE (120°)9.2 mphOvercast
10:00 PM59.0 °F55.4 °F88 %29.89 in6.0 miSSE (150°)4.6 mphRainLight Rain Showers
10:26 PM59.0 °F0.0 °F10.0 miCalmOvercast
11:00 PM59.0 °F57.0 °F92 %29.86 inWest (270°)2.3 mph
11:00 PM60.8 °F57.2 °F88 %29.89 in15.0 miCalmOvercast
Hourly data recorded from CYQB, located miles away from Ancienne Lorette, Quebec







STORIES FROM OUR PARTNERS